Miscellaneous Local Product
Issued by NWS North Platte, NE

Home | Current Version | Previous Version | Graphics & Text | Print | Product List | Glossary Off
Versions: 1 2 3 4 5 6 7 8 9 10 11 12 13 14 15 16 17 18 19 20 21 22 23 24 25 26 27 28 29 30 31 32 33 34 35 36 37 38 39 40 41 42 43 44 45 46 47 48 49 50

379
AXUS43 KLBF 201210
MISLBF


WESTERN AND NORTH CENTRAL NEBRASKA HOURLY WEATHER ROUNDUP
NATIONAL WEATHER SERVICE NORTH PLATTE NE
700 AM CDT SUN MAY 20 2018

NOTE: "FAIR" INDICATES FEW OR NO CLOUDS BELOW 12,000 FEET WITH NO
SIGNIFICANT WEATHER AND/OR OBSTRUCTIONS TO VISIBILITY.

NOTE: STATIONS NOT REPORTING VARIABLES SUCH AS SKY/WEATHER OR
PRESSURE ARE PROVIDED BY RAWS AND APRS NETWORKS AND ARE NOT UNDER
NATIONAL WEATHER SERVICE QUALITY CONTROL.

...OBSERVATIONS IN AND NEAR THE EASTERN PANHANDLE OF NEBRASKA...

CITY           SKY/WX    TMP DP  RH WIND       PRES   REMARKS
PINE RIDGE     PTCLDY    34  34 100 CALM      30.25R FOG
GORDON         FAIR      38  34  84 CALM      30.23R
CHADRON        PTCLDY    36  36 100 CALM      30.24R
ALLIANCE       CLOUDY    41  40  96 CALM      30.23R
SIDNEY         MOCLDY    41  39  93 N5        30.26R
CRESCENT LAKE    N/A     44  41  89 NW5         N/A
$$

...OBSERVATIONS IN NORTHERN NEBRASKA AND FAR SOUTHERN SOUTH DAKOTA...

CITY           SKY/WX    TMP DP  RH WIND       PRES   REMARKS
WINNER         FAIR      42  34  73 NW3       30.22R
VALENTINE      CLOUDY    48  35  60 N7        30.22R
AINSWORTH      CLOUDY    46  42  85 N5        30.21R
O`NEILL        CLOUDY    53  51  93 N7        30.17R
THEDFORD       CLOUDY    47  41  77 N3        30.21S
BROKEN BOW     CLOUDY    49  46  90 N12       30.15R
ORD            CLOUDY    51  51 100 N7        30.14R FOG
ALBION         DRIZZLE   53  52  96 NE10      30.13R
VALENTINE NWR    N/A     46  37  70 N7          N/A
HALSEY           N/A     47  40  78 CALM        N/A
BUTTE            N/A     50  43  78 NE8         N/A
CHAMBERS         N/A     51  50  96 N3          N/A
EWING            N/A     51  49  94 NE3         N/A
$$

...OBSERVATIONS IN SOUTHWEST NEBRASKA AND FAR NORTHEAST COLORADO...

CITY           SKY/WX    TMP DP  RH WIND       PRES   REMARKS
WRAY           FAIR      41  41 100 NW7       30.25R
HOLYOKE        CLOUDY    45  41  87 NW7       30.24S
IMPERIAL       CLOUDY    46  44  93 NW9       30.22R
OGALLALA       CLOUDY    48  44  87 N5        30.23R
NORTH PLATTE   CLOUDY    49  43  80 NW8       30.19R
MCCOOK         CLOUDY    49  45  86 NW10      30.18R
LEXINGTON      CLOUDY    50  47  88 N12       30.15S
STAPLETON        N/A     47  41  81 CALM        N/A
GOTHENBURG       N/A     49  43  79 N5          N/A
CALLAWAY         N/A     49  45  86 N9          N/A
$$

...OBSERVATIONS IN CENTRAL LINCOLN COUNTY AREA...

CITY           SKY/WX    TMP DP  RH WIND       PRES   REMARKS
N.P. AIRPORT   CLOUDY    49  43  80 NW8       30.19R
N.P. DOWNTOWN    N/A     48  43  82 CALM        N/A
N.P. SOUTHEAST   N/A     48  42  79 CALM        N/A
$$

...OBSERVATIONS ACROSS THE ROCKIES AND WESTERN HIGH PLAINS...

CITY           SKY/WX    TMP DP  RH WIND       PRES   REMARKS
RAPID CITY     CLEAR     38  32  79 CALM      30.25S
SCOTTSBLUFF    MOCLDY    43  41  93 NW3       30.24R
CHEYENNE       CLOUDY    37  37 100 SE6       30.24R FOG     WCI  32
DENVER         CLOUDY    41  39  93 E10       30.25R
BERTHOUD PASS  FAIR      30  18  59 W18       30.35R WCI  18
COPPER MTN     CLEAR     36  23  60 S10       30.35R WCI  28
MONARCH PASS   CLEAR     32  28  86 MISG      30.46S
ASPEN          CLEAR     33 -23   8 S7        30.17R WCI  27
STEAMBOAT      FAIR      33  33 100 CALM      30.15S
LARAMIE        PTCLDY    31  31 100 SE9       30.19R WCI  23
CASPER         FOG       38  38 100 E7        30.17S VSB 1/2 WCI  33
$$

...OBSERVATIONS ACROSS THE NORTHERN PLAINS...

CITY           SKY/WX    TMP DP  RH WIND       PRES   REMARKS
BISMARCK       CLEAR     39  37  92 CALM      30.29R
FARGO          FAIR      41  37  86 CALM      30.26R
PIERRE         MOCLDY    42  38  85 E3        30.22R
SIOUX FALLS    CLOUDY    49  40  71 NE15      30.18R
$$

...OBSERVATIONS ACROSS THE CENTRAL AND SOUTHERN PLAINS...

CITY           SKY/WX    TMP DP  RH WIND       PRES   REMARKS
OMAHA          CLOUDY    57  53  86 NE13      30.08R
GRAND ISLAND   LGT RAIN  53  52  96 N9        30.12R FOG
KANSAS CITY    CLOUDY    65  63  93 N9        30.02R
WICHITA        CLOUDY    60  57  89 N12       30.05S
DODGE CITY     CLOUDY    49  44  83 NW15G26   30.11F
OKLAHOMA CITY  CLOUDY    63  61  93 NW7       30.04R
DALLAS         CLOUDY    76  70  82 S5        30.00R
AMARILLO       CLOUDY    49  44  83 N21G29    30.14S
$$




USA.gov is the U.S. government's official web portal to all federal, state and local government web resources and services.